Location: Dattensoll
(49.9928°N, 9.8954°E)
Time: 04:59:56
(UTC+00:00)

Iridium 4 Rocket - Pass Details

Date: 19 May 2025
Orbit: 582 x 887 km, 86.9° (Epoch: 14 June)

Event Time Altitude Azimuth Distance (km) Brightness Sun altitude
Rises 19:58:29 0° 356° (N) 3,139 7.5 -7.5°
Reaches altitude 10° 20:00:43 10° 356° (N) 2,259 6.7 -7.7°
Maximum altitude 20:05:48 88° 266° (W) 794 3.6 -8.3°
Drops below altitude 10° 20:11:17 10° 180° (S) 2,434 5.7 -8.9°
Enters shadow 20:13:22 - 180° (S) 3,248 6.3 -9.2°
